Regional Weather Roundup
Issued by NWS Charleston, SC

Current Version | Previous Version | Graphics & Text | Print | Product List | Glossary On
Versions: 1 2 3 4 5 6 7 8 9 10 11 12 13 14 15 16 17 18 19 20 21 22 23 24 25 26 27 28 29 30 31 32 33 34 35 36 37 38 39 40 41 42 43 44 45 46 47 48 49 50
000
ASUS42 KCHS 152325
RWRCHS

REGIONAL WEATHER ROUNDUP
NATIONAL WEATHER SERVICE CHARLESTON SC
700 PM EDT TUE APR 15 2014

NOTE: "FAIR" INDICATES FEW OR NO CLOUDS BELOW 12,000 FEET WITH NO
SIGNIFICANT WEATHER AND/OR OBSTRUCTIONS TO VISIBILITY.

NOT ALL STATIONS ARE QUALITY CONTROLLED BY THE NATIONAL
WEATHER SERVICE. USE DATA WITH CAUTION...ESPECIALLY
DEWPOINT OBSERVATIONS.

SCZ027-030-031-034>040-042>050-160000-
...SOUTH CAROLINA...

CITY           SKY/WX    TMP DP  RH WIND       PRES   REMARKS
N CHARLESTON   LGT RAIN  71  66  84 SW17G24   29.68S FOG
WATERFRONT PRK   N/A     70 N/A N/A SW13        N/A
FORT JOHNSON     N/A     68  68 100 SW8G18    29.74R
MOUNT PLEASANT RAIN     N/A N/A N/A SW10      29.69S
JOHNS ISLAND   HVY RAIN  70  70 100 SW9G18    29.71R VSB 1
PINOPOLIS        N/A     73  64  73 SW8       29.60R
MONCKS CORNER  RAIN      72  68  88 SW10G16   29.67S
SUMMERVILLE    CLOUDY    68  64  88 W8        29.71R
BEAUFORT MCAS  CLOUDY    66  62  87 NW12      29.73R
BEAUFORT ARPT  CLOUDY    64  63  94 W18G26    29.74R
HILTON HEAD IS CLOUDY    66  64  94 W7        29.73R
GEORGETOWN     NOT AVBL
WALTERBORO     CLOUDY    64 N/A N/A W13       29.73R
ORANGEBURG     CLOUDY    67  58  72 W15       29.71R
BARNWELL       CLOUDY    63  52  67 W14G23    29.78R
AIKEN          CLOUDY    61  54  77 W13G18    29.81R
MANNING        CLOUDY    68 N/A N/A W5        29.70R
KINGSTREE      NOT AVBL
COLUMBIA       PTSUNNY   62  54  74 NW9       29.74R
SUMTER         CLOUDY    59  55  88 NW12      29.72R
FLORENCE       LGT RAIN  58  55  90 N24G30    29.70R
MYRTLE BEACH   PTCLDY    70  63  78 S17       29.67S
N MYRTLE BEACH CLOUDY    68  64  87 SW20      29.66F

$$

GAZ063-065-086>088-099>101-113>116-118-119-134-136>141-150-160000-
...GEORGIA...

CITY           SKY/WX    TMP DP  RH WIND       PRES   REMARKS
SAVANNAH ARPT  PTSUNNY   63  54  72 NW20G31   29.79R
HUNTER AAF     CLOUDY    64  60  87 W16G22    29.75R
FORT STEWART   CLOUDY    60  58  91 W18G24    29.79R
STATESBORO     NOT AVBL
SYLVANIA       MOCLDY    62  52  68 W12       29.81R
CLAXTON        FAIR      59  52  77 W20G28    29.84R
THOMSON        SUNNY     55  44  66 W15G23    29.90R
AUGUSTA-BUSH   SUNNY     60  45  57 NW23G31   29.80R
AUGUSTA-DANIEL SUNNY     60  46  59 W10G25    29.80R
SWAINSBORO     FAIR      55  45  67 NW17G28   29.87R
VIDALIA        MOSUNNY   55  45  67 NW14G26   29.87R
ALMA           CLOUDY    56  46  69 NW18G29   29.88R
WAYCROSS       NOT AVBL
JESUP          CLOUDY    55  54  94 NW17G24   29.86R
BRUNSWICK      CLOUDY    64  59  82 W14G23    29.80R
SAINT SIMONS   LGT RAIN  65  59  81 W18G29    29.79R

$$

SCZ027-028-034-036>038-045-046-048>050-GAZ119-141-160000-
...LAKE AND SUPPLEMENTAL COASTAL OBSERVATIONS...

STATION/POSITION TIME  TEMP    WIND        PRES    WAVE   SWELL
                       AIR SEA DIR/SP/G            HT/PER HT/PER/DIR
                 (UTC) (F)     (DEG/KT/KT) (MB)    (FT/S) (FT/S/D)
UPR LAKE MARION  NOT AVBL
WINYAH BAY       2300   70     210/ 11     1005.0S
LAKE MURRAY      2200   60     340/  5/ 14 1006.1R
ACE BASIN NERRS  2300   68     270/  6     1006.0R
FORT PULASKI     2300   65 62  270/ 18/ 20 1007.6R
SAPELO ISLAND    2300   65     290/ 16     1008.0S

$$

ANZ086-088-AMZ330-350-352-354-374-454-470-160000-
...C-MAN AND BUOY OBSERVATIONS...

STATION/POSITION TIME  TEMP    WIND        PRES    WAVE   SWELL
                       AIR SEA DIR/SP/G            HT/PER HT/PER/DIR
                 (UTC) (F)     (DEG/KT/KT) (MB)    (FT/S) (FT/S/D)
FOLLY BEACH CMAN 2300   67     220/ 12/ 14 1005.8R
BUOY 41004       NOT AVBL
BUOY 41008       2300   66 67  280/ 19/ 23 1006.9R   4/ 8   3/110/ 8
5E ST. MARYS GA  2300      68                N/A     5/ 8
FRYING PAN BUOY  2300   69 67  180/ 17/ 21 1005.2F   6/ 8   3/120/ 8
BUOY 41025       NOT AVBL
CAPE LOOKOUT NC  2300   66     180/ 18/ 20 1005.5F
BUOY 41002       NOT AVBL
BUOY 41010       2300   76 76  180/ 10/ 12 1011.4R   5/ 8   5/ 90/ 8
BUOY 41012       NOT AVBL
ST AUGUSTINE FL  2300   72     250/ 10/ 13 1009.0R


$$


USA.gov is the U.S. government's official web portal to all federal, state and local government web resources and services.